Voltar ao catálogo

STARLINK-31419

AtivoComunicaçõesVLEO
NORAD 59368·PAYLOAD·🇺🇸 United States

Lançado Mar 31, 2024 de Cape Canaveral Space Force Station

Loading…

Próximas Passagens (próximas 24 horas)

TLE

AtualizadoSource: CelesTrak SupGP

Época: Sep 15, 2026, 03:09 UTC

1 59368C 24060W   26258.13173611 -.00018007  00000+0 -65230-3 0  2583
2 59368  42.9999 269.8914 0001323 265.1053 203.7393 15.27582660    15

Acompanhe STARLINK-31419 em tempo real com AllMySat

Download on the App Store